View from above orbital plane
|
View from above satellite
|
Ground track
|
The orbit data is extracted from the following two-line orbital elements,
1 45U 60007A 21063.44135349 -.00000055 00000-0 13120-4 0 9999
2 45 66.6943 55.7346 0249351 127.3977 235.0109 14.33707941159975
Epoch (UTC): | 04 March 2021 10:35:32 |
Eccentricity: | 0.0249351 |
inclination: | 66.6943° |
perigee height: | 601 km |
apogee height: | 958 km |
right ascension of ascending node: | 55.7346° |
argument of perigee: | 127.3977° |
revolutions per day: | 14.33707941 |
mean anomaly at epoch: | 235.0109° |
orbit number at epoch: | 15997 |
The dashed part of the orbit path shows where the satellite is in the earth's shadow,
|
|